FW0714 Weather Reports


time (UTC)temp
C
wind
direction
speed
KPH
gust
KPH
rain 1hr
cm
rain 24hr
cm
rain mn
cm
humidity
%
barometer
mb
20260506233244 7 0 0.0 3.2 0.00 0.10 0.00 86 1012.1
20260506232718 7 0 0.0 4.8 0.00 0.10 0.00 86 1012.1
20260506232211 7 0 0.0 4.8 0.00 0.10 0.00 86 1012.1
20260506231707 7 319 0.0 4.8 0.00 0.10 0.00 86 1012.1
20260506231211 7 319 1.6 3.2 0.00 0.10 0.00 86 1012.1
20260506230708 7 0 0.0 3.2 0.00 0.10 0.00 85 1012.1
20260506230205 7 0 0.0 6.4 0.00 0.10 0.00 85 1012.1
20260506225717 7 355 0.0 6.4 0.00 0.10 0.00 85 1012.0
20260506224718 7 7 1.6 6.4 0.00 0.10 0.00 85 1012.0
20260506224205 7 27 1.6 6.4 0.00 0.10 0.00 84 1012.0
20260506223712 7 0 0.0 6.4 0.00 0.10 0.00 84 1011.9
20260506223207 7 0 1.6 6.4 0.00 0.10 0.00 84 1012.0
20260506222713 7 0 0.0 8.0 0.00 0.10 0.00 84 1011.9
20260506221211 8 355 1.6 9.7 0.00 0.10 0.00 83 1011.8
20260506220706 8 306 0.0 8.0 0.00 0.10 0.00 83 1011.8
20260506220211 8 37 0.0 8.0 0.00 0.10 0.10 82 1011.8
20260506215213 8 42 3.2 8.0 0.00 0.10 0.10 82 1011.8
20260506214207 8 48 0.0 9.7 0.00 0.10 0.10 82 1011.7
20260506213214 8 48 1.6 9.7 0.00 0.10 0.10 81 1011.6
20260506212715 8 25 3.2 9.7 0.00 0.10 0.10 81 1011.6
20260506212215 8 0 1.6 9.7 0.00 0.10 0.10 81 1011.6
20260506211714 9 4 1.6 9.7 0.00 0.10 0.10 80 1011.5
20260506211212 9 37 0.0 9.7 0.00 0.10 0.10 80 1011.6
20260506210715 9 56 3.2 14.5 0.00 0.10 0.10 80 1011.5
20260506210206 9 350 1.6 14.5 0.00 0.10 0.10 80 1011.5
20260506205707 9 4 1.6 14.5 0.00 0.10 0.10 79 1011.5
20260506205206 9 0 3.2 6.4 0.00 0.10 0.10 79 1011.5
20260506203212 10 329 1.6 8.0 0.00 0.10 0.10 78 1011.4
20260506202710 10 307 1.6 8.0 0.00 0.10 0.10 78 1011.4
20260506201706 10 299 0.0 6.4 0.00 0.10 0.10 77 1011.4
20260506201217 10 68 1.6 6.4 0.00 0.10 0.10 77 1011.4
20260506200213 10 0 3.2 8.0 0.00 0.10 0.10 77 1011.3
20260506195718 10 23 3.2 8.0 0.00 0.10 0.10 77 1011.2
20260506195209 10 61 0.0 9.7 0.00 0.10 0.10 77 1011.1
20260506194708 10 65 4.8 9.7 0.00 0.10 0.10 77 1011.1
20260506192718 10 47 1.6 11.3 0.00 0.10 0.10 77 1011.0
20260506192211 10 65 3.2 1.6 0.00 0.10 0.10 78 1010.9
20260506191713 11 51 0.0 1.6 0.00 0.10 0.10 78 1010.9
20260506191209 11 51 0.0 1.6 0.00 0.10 0.10 78 1010.8
20260506190712 11 51 0.0 0.0 0.00 0.10 0.10 78 1010.8
20260506190206 11 52 0.0 0.0 0.00 0.10 0.10 78 1010.7
20260506185716 11 52 0.0 0.0 0.00 0.10 0.10 77 1010.7
20260506185217 11 52 0.0 0.0 0.00 0.10 0.10 77 1010.6
20260506184711 11 52 0.0 0.0 0.00 0.10 0.10 77 1010.6
20260506184211 11 52 0.0 0.0 0.00 0.10 0.10 76 1010.6
20260506183713 11 52 0.0 3.2 0.00 0.10 0.10 76 1010.5
20260506183215 11 52 0.0 4.8 0.00 0.10 0.10 75 1010.4
20260506182715 11 52 0.0 4.8 0.00 0.10 0.10 75 1010.4
20260506181713 11 51 0.0 3.2 0.00 0.10 0.10 74 1010.2
20260506181208 11 51 1.6 4.8 0.00 0.10 0.10 74 1010.2
20260506180713 11 51 1.6 4.8 0.00 0.10 0.10 74 1010.1
20260506180212 11 51 1.6 4.8 0.00 0.10 0.10 74 1010.0
20260506175705 11 48 1.6 4.8 0.00 0.10 0.10 74 1010.0
20260506174719 11 58 1.6 6.4 0.00 0.10 0.10 74 1009.9
20260506174220 11 55 1.6 6.4 0.00 0.10 0.10 73 1009.8
20260506173707 11 68 1.6 6.4 0.00 0.10 0.10 73 1009.9
20260506173206 11 68 3.2 6.4 0.00 0.10 0.10 73 1009.8
20260506172714 11 72 1.6 6.4 0.00 0.10 0.10 73 1009.8
20260506172220 11 56 1.6 4.8 0.00 0.10 0.10 74 1009.7
20260506171711 11 56 3.2 4.8 0.00 0.10 0.10 74 1009.7
20260506171219 11 56 3.2 3.2 0.00 0.10 0.10 74 1009.7
20260506170709 11 56 1.6 3.2 0.00 0.10 0.10 74 1009.7
20260506170219 11 41 0.0 3.2 0.00 0.10 0.10 74 1009.7
20260506165705 11 41 1.6 4.8 0.00 0.10 0.10 74 1009.6
20260506165212 11 35 0.0 6.4 0.00 0.10 0.10 74 1009.6
20260506164712 11 35 1.6 6.4 0.00 0.10 0.10 73 1009.6
20260506164209 11 31 1.6 6.4 0.00 0.10 0.10 74 1009.6
20260506163711 11 66 0.0 6.4 0.00 0.10 0.10 73 1009.6
20260506162238 11 66 3.2 6.4 0.00 0.10 0.10 73 1009.5
20260506161728 11 76 1.6 6.4 0.00 0.10 0.10 73 1009.5
20260506161224 11 82 3.2 6.4 0.00 0.10 0.10 73 1009.5
20260506160717 11 83 1.6 4.8 0.00 0.10 0.10 74 1009.5
20260506160230 11 80 1.6 4.8 0.00 0.10 0.10 74 1009.5
20260506155707 11 86 3.2 4.8 0.00 0.10 0.10 73 1009.5
20260506155210 11 103 1.6 6.4 0.00 0.10 0.10 74 1009.6
20260506154715 11 106 1.6 8.0 0.00 0.10 0.10 74 1009.6
20260506154207 11 104 1.6 8.0 0.00 0.10 0.10 74 1009.5
20260506153210 11 41 1.6 14.5 0.00 0.10 0.10 72 1009.6
20260506152713 11 69 4.8 14.5 0.00 0.10 0.10 72 1009.6
20260506152210 11 76 8.0 8.0 0.00 0.10 0.10 73 1009.6
20260506151715 11 75 3.2 11.3 0.00 0.10 0.10 74 1009.5
20260506151206 11 51 3.2 11.3 0.00 0.10 0.10 73 1009.4
20260506150214 11 63 4.8 6.4 0.00 0.10 0.10 75 1009.4
20260506145707 11 73 3.2 9.7 0.00 0.10 0.10 76 1009.4
20260506145216 11 54 3.2 9.7 0.00 0.10 0.10 75 1009.4
20260506144219 11 72 4.8 17.7 0.00 0.10 0.10 74 1009.4
20260506143708 11 75 6.4 17.7 0.00 0.10 0.10 72 1009.4
20260506142714 11 54 4.8 19.3 0.00 0.10 0.10 73 1009.3
20260506142215 11 92 3.2 22.5 0.00 0.10 0.10 73 1009.3
20260506141707 11 28 6.4 22.5 0.00 0.10 0.10 72 1009.3
20260506141246 11 78 9.7 16.1 0.00 0.10 0.10 73 1009.3
20260506140718 11 94 6.4 16.1 0.00 0.10 0.10 73 1009.4
20260506140219 11 56 6.4 16.1 0.00 0.10 0.10 73 1009.3
20260506135711 11 37 6.4 17.7 0.00 0.10 0.10 73 1009.3
20260506135208 11 96 6.4 17.7 0.00 0.10 0.10 73 1009.3
20260506134720 11 66 6.4 20.9 0.00 0.10 0.10 74 1009.3
20260506134218 11 25 8.0 20.9 0.00 0.10 0.10 74 1009.3
20260506133715 11 96 6.4 19.3 0.00 0.10 0.10 72 1009.3
20260506133215 11 69 8.0 16.1 0.00 0.10 0.10 72 1009.3
20260506132713 11 32 8.0 16.1 0.00 0.10 0.10 71 1009.3
20260506131710 11 72 6.4 17.7 0.00 0.10 0.10 72 1009.4
20260506131205 11 55 6.4 19.3 0.00 0.10 0.10 71 1009.4
20260506130713 11 17 8.0 19.3 0.00 0.10 0.10 71 1009.4
20260506130207 11 66 6.4 19.3 0.00 0.10 0.10 71 1009.5
20260506125713 11 93 9.7 19.3 0.00 0.10 0.10 71 1009.5
20260506125212 10 61 9.7 19.3 0.00 0.10 0.10 71 1009.4
20260506124716 10 56 9.7 17.7 0.00 0.10 0.10 72 1009.4
20260506124206 10 90 6.4 22.5 0.00 0.10 0.10 74 1009.3
20260506123208 10 78 6.4 22.5 0.00 0.10 0.10 74 1009.4
20260506122716 10 85 9.7 20.9 0.00 0.10 0.10 73 1009.3
20260506122211 10 0 11.3 19.3 0.00 0.10 0.10 74 1009.3
20260506121206 10 39 8.0 20.9 0.00 0.10 0.10 76 1009.3
20260506120209 10 61 4.8 20.9 0.00 0.10 0.10 76 1009.3
20260506115219 10 58 8.0 17.7 0.00 0.10 0.10 76 1009.1
20260506114714 10 96 11.3 16.1 0.00 0.10 0.10 76 1009.0
20260506114212 10 59 6.4 16.1 0.00 0.10 0.10 77 1009.0
20260506113719 10 41 4.8 16.1 0.00 0.10 0.10 76 1009.0
20260506113211 10 55 8.0 16.1 0.00 0.10 0.10 76 1008.9
20260506112712 10 24 6.4 16.1 0.00 0.10 0.10 76 1008.9
20260506112208 10 39 6.4 14.5 0.00 0.10 0.10 76 1008.9
20260506111709 10 63 9.7 14.5 0.00 0.10 0.10 75 1008.9
20260506111215 10 85 8.0 14.5 0.00 0.10 0.10 75 1008.8
20260506110717 10 100 6.4 19.3 0.00 0.10 0.10 75 1008.8
20260506110207 10 47 8.0 22.5 0.00 0.10 0.10 74 1008.7
20260506105712 10 80 4.8 22.5 0.00 0.10 0.10 73 1008.7
20260506105219 10 0 8.0 22.5 0.00 0.10 0.10 74 1008.8
20260506104717 10 14 9.7 17.7 0.00 0.10 0.10 74 1008.8
20260506103714 10 103 6.4 9.7 0.00 0.10 0.10 76 1008.8
20260506103209 10 47 1.6 9.7 0.00 0.10 0.10 77 1008.7
20260506102711 10 51 3.2 11.3 0.00 0.10 0.10 77 1008.7
20260506101709 10 17 6.4 11.3 0.00 0.10 0.10 76 1008.6
20260506100710 10 58 6.4 14.5 0.00 0.10 0.10 76 1008.6
20260506100239 10 51 6.4 14.5 0.00 0.10 0.10 77 1008.6
20260506095714 10 14 4.8 14.5 0.00 0.10 0.10 78 1008.5
20260506095211 10 23 3.2 14.5 0.00 0.10 0.10 78 1008.5
20260506094707 10 72 3.2 14.5 0.00 0.10 0.10 77 1008.6
20260506094210 10 42 3.2 17.7 0.00 0.10 0.10 77 1008.5
20260506093217 10 38 8.0 17.7 0.00 0.10 0.10 76 1008.5
20260506092705 10 42 8.0 19.3 0.00 0.10 0.10 75 1008.4
20260506092207 10 45 9.7 19.3 0.00 0.10 0.10 76 1008.4
20260506091709 10 79 4.8 19.3 0.00 0.10 0.10 76 1008.4
20260506091219 10 68 6.4 17.7 0.00 0.10 0.10 77 1008.3
20260506090707 10 62 4.8 17.7 0.00 0.10 0.10 76 1008.3
20260506090215 10 80 6.4 17.7 0.00 0.10 0.10 77 1008.3
20260506085709 10 71 6.4 14.5 0.00 0.10 0.10 78 1008.2
20260506084710 10 79 6.4 16.1 0.00 0.10 0.10 79 1008.2
20260506084217 10 80 6.4 16.1 0.00 0.10 0.10 80 1008.2
20260506082707 10 355 3.2 17.7 0.00 0.10 0.10 80 1008.1
20260506081208 10 79 4.8 14.5 0.00 0.10 0.10 82 1007.9
20260506080722 10 37 6.4 19.3 0.00 0.10 0.10 82 1007.9
20260506080206 10 69 4.8 19.3 0.00 0.10 0.10 83 1007.9
20260506073209 9 58 6.4 11.3 0.00 0.10 0.10 84 1007.8
20260506072714 9 48 4.8 14.5 0.00 0.10 0.10 84 1007.8
20260506072242 9 42 4.8 14.5 0.00 0.10 0.10 84 1007.9
20260506071706 9 80 3.2 14.5 0.00 0.10 0.10 85 1007.8
20260506071217 9 35 4.8 14.5 0.00 0.10 0.10 85 1007.8
20260506070717 9 55 8.0 14.5 0.00 0.10 0.10 85 1007.8
20260506070219 9 45 6.4 14.5 0.00 0.10 0.10 85 1007.7
20260506062214 8 24 1.6 8.0 0.05 0.10 0.10 87 1007.6
20260506061712 8 44 1.6 4.8 0.05 0.10 0.10 87 1007.6
20260506061208 8 48 0.0 8.0 0.05 0.10 0.10 87 1007.6
20260506060718 8 47 0.0 8.0 0.05 0.10 0.10 87 1007.5
20260506060218 8 69 1.6 8.0 0.05 0.10 0.10 87 1007.6
20260506050710 9 23 3.2 11.3 0.05 0.05 0.05 87 1007.6
20260506050207 9 42 6.4 11.3 0.05 0.05 0.05 87 1007.6
20260506044207 9 83 6.4 14.5 0.03 0.03 0.03 87 1007.5
20260506043705 9 72 4.8 9.7 0.03 0.03 0.03 87 1007.4
20260506043216 9 71 4.8 9.7 0.03 0.03 0.03 86 1007.4
20260506042713 9 47 3.2 9.7 0.00 0.00 0.00 86 1007.4
20260506041716 10 6 1.6 9.7 0.00 0.00 0.00 86 1007.3
20260506041217 10 65 3.2 9.7 0.00 0.00 0.00 86 1007.3
20260506040705 10 48 3.2 9.7 0.00 0.00 0.00 86 1007.4
20260506040207 10 0 4.8 14.5 0.00 0.00 0.00 86 1007.4
20260506035707 10 49 3.2 16.1 0.00 0.00 0.00 85 1007.3
20260506034711 10 48 3.2 16.1 0.00 0.00 0.00 85 1007.4
20260506034206 10 21 4.8 11.3 0.00 0.00 0.00 86 1007.4
20260506033714 10 0 4.8 11.3 0.00 0.00 0.00 86 1007.4
20260506032705 10 31 4.8 14.5 0.00 0.00 0.00 86 1007.5
20260506032217 10 37 3.2 14.5 0.00 0.00 0.00 86 1007.5
20260506031709 10 20 1.6 11.3 0.00 0.00 0.00 86 1007.6
20260506031218 10 10 3.2 16.1 0.00 0.00 0.00 86 1007.7
20260506030719 10 75 0.0 16.1 0.00 0.00 0.00 86 1007.6
20260506030208 10 23 3.2 16.1 0.00 0.00 0.00 86 1007.6
20260506025718 10 59 3.2 16.1 0.00 0.00 0.00 86 1007.6
20260506025206 10 27 4.8 16.1 0.00 0.00 0.00 86 1007.7
20260506024712 10 34 3.2 16.1 0.00 0.00 0.00 86 1007.7
20260506024218 10 58 4.8 14.5 0.00 0.00 0.00 86 1007.7
20260506023717 10 307 3.2 14.5 0.00 0.00 0.00 86 1007.7
20260506023215 10 21 3.2 14.5 0.00 0.00 0.00 86 1007.7
20260506022716 10 25 3.2 11.3 0.00 0.00 0.00 86 1007.7
20260506022218 10 1 4.8 14.5 0.00 0.00 0.00 86 1007.8
20260506021706 10 51 3.2 14.5 0.00 0.00 0.00 86 1007.8
20260506021217 10 3 1.6 14.5 0.00 0.00 0.00 86 1007.9
20260506020712 10 41 4.8 9.7 0.00 0.00 0.00 86 1008.0
20260506020215 10 11 4.8 9.7 0.00 0.00 0.00 85 1008.0
20260506015716 10 79 3.2 14.5 0.00 0.00 0.00 85 1008.0
20260506015207 10 21 3.2 14.5 0.00 0.00 0.00 85 1008.1
20260506014707 10 13 3.2 14.5 0.00 0.00 0.00 85 1008.1
20260506014220 10 0 3.2 9.7 0.00 0.00 0.00 85 1008.1
20260506013710 10 51 1.6 11.3 0.00 0.00 0.00 85 1008.2
20260506012217 10 38 4.8 11.3 0.00 0.00 0.00 84 1008.3
20260506011712 10 7 1.6 11.3 0.00 0.00 0.00 84 1008.3
20260506010209 10 31 3.2 17.7 0.00 0.00 0.00 84 1008.3
20260506005709 10 51 1.6 17.7 0.00 0.00 0.00 84 1008.3
20260506005207 10 48 4.8 11.3 0.00 0.00 0.00 84 1008.3
20260506004715 10 0 3.2 11.3 0.00 0.00 0.00 84 1008.4
20260506004206 10 65 1.6 11.3 0.00 0.00 0.00 84 1008.4
20260506003217 10 97 4.8 9.7 0.00 0.00 0.00 84 1008.5
20260506002720 10 66 4.8 14.5 0.00 0.00 0.00 84 1008.6
20260506002219 10 41 3.2 14.5 0.00 0.00 0.00 84 1008.6
20260506001715 10 49 3.2 14.5 0.00 0.00 0.00 84 1008.6
20260506001217 10 42 1.6 8.0 0.00 0.00 0.00 83 1008.6
20260506000710 10 54 3.2 8.0 0.00 0.00 0.00 83 1008.7
20260506000219 10 44 1.6 11.3 0.00 0.00 0.00 83 1008.8
20260505235708 10 56 1.6 11.3 0.00 0.00 0.00 83 1008.9
20260505235208 10 52 4.8 11.3 0.00 0.00 0.00 83 1008.9
20260505234707 10 16 3.2 11.3 0.00 0.00 0.00 83 1009.0
20260505234209 10 357 1.6 11.3 0.00 0.00 0.00 83 1009.1